N4DWK Weather Reports


Display with metric or nautical units.
time (UTC)temp
F
wind
direction
speed
MPH
gust
MPH
rain 1hr
in
rain 24hr
in
rain mn
in
humidity
%
barometer
mb
20260902161006 91 5 1.0 5.0 0.00 0.00 0.00 66 1017.5
20260902160505 91 355 2.0 6.0 0.00 0.00 0.00 65 1017.6
20260902160008 91 12 2.0 6.0 0.00 0.00 0.00 64 1017.5
20260902155505 91 355 2.0 6.0 0.00 0.00 0.00 65 1017.6
20260902155006 91 5 2.0 6.0 0.00 0.00 0.00 65 1017.6
20260902154506 90 10 2.0 6.0 0.00 0.00 0.00 67 1017.6
20260902154005 90 5 2.0 6.0 0.00 0.00 0.00 68 1017.6
20260902153507 89 16 2.0 5.0 0.00 0.00 0.00 68 1017.6
20260902153005 89 294 0.0 3.0 0.00 0.00 0.00 68 1017.5
20260902152506 89 355 2.0 5.0 0.00 0.00 0.00 68 1017.6
20260902152005 89 117 3.0 5.0 0.00 0.00 0.00 67 1017.7
20260902151505 88 5 1.0 5.0 0.00 0.00 0.00 68 1017.7
20260902151006 88 37 1.0 6.0 0.00 0.00 0.00 68 1017.8
20260902150506 88 5 3.0 6.0 0.00 0.00 0.00 68 1017.9
20260902150006 88 345 3.0 6.0 0.00 0.00 0.00 69 1017.9
20260902145505 88 12 2.0 8.0 0.00 0.00 0.00 69 1017.9
20260902145005 88 8 2.0 8.0 0.00 0.00 0.00 69 1017.9
20260902144506 88 1 3.0 8.0 0.00 0.00 0.00 70 1017.9
20260902144006 88 353 2.0 5.0 0.00 0.00 0.00 70 1017.9
20260902143505 88 14 2.0 5.0 0.00 0.00 0.00 70 1017.9
20260902143006 88 31 2.0 6.0 0.00 0.00 0.00 71 1017.9
20260902142505 88 323 2.0 6.0 0.00 0.00 0.00 71 1017.8
20260902142006 87 113 1.0 3.0 0.00 0.00 0.00 73 1017.7
20260902141505 87 19 2.0 5.0 0.00 0.00 0.00 73 1017.8
20260902141005 87 11 1.0 5.0 0.00 0.00 0.00 73 1017.7
20260902140505 87 9 1.0 5.0 0.00 0.00 0.00 74 1017.7
20260902140005 87 34 1.0 3.0 0.00 0.00 0.00 74 1017.7
20260902135506 87 67 0.0 3.0 0.00 0.00 0.00 74 1017.6
20260902135007 87 68 1.0 3.0 0.00 0.00 0.00 74 1017.6
20260902134505 87 38 1.0 5.0 0.00 0.00 0.00 74 1017.5
20260902134006 87 7 2.0 5.0 0.00 0.00 0.00 75 1017.5
20260902133505 87 18 2.0 3.0 0.00 0.00 0.00 75 1017.5
20260902133005 86 18 2.0 3.0 0.00 0.00 0.00 76 1017.5
20260902132506 86 19 2.0 3.0 0.00 0.00 0.00 77 1017.4
20260902132005 85 5 2.0 3.0 0.00 0.00 0.00 77 1017.5
20260902131505 85 5 0.0 3.0 0.00 0.00 0.00 78 1017.5
20260902131006 85 5 1.0 3.0 0.00 0.00 0.00 79 1017.5
20260902130505 84 5 2.0 3.0 0.00 0.00 0.00 80 1017.5
20260902130005 83 5 0.0 3.0 0.00 0.00 0.00 83 1017.5
20260902125505 82 5 2.0 3.0 0.00 0.00 0.00 83 1017.6
20260902125005 81 5 0.0 3.0 0.00 0.00 0.00 83 1017.4
20260902124505 81 5 0.0 2.0 0.00 0.00 0.00 85 1017.4
20260902124005 80 5 0.0 2.0 0.00 0.00 0.00 84 1017.4
20260902123505 80 5 1.0 5.0 0.00 0.00 0.00 85 1017.4
20260902123005 79 5 3.0 5.0 0.00 0.00 0.00 87 1017.4
20260902122505 79 336 0.0 1.0 0.00 0.00 0.00 89 1017.4
20260902122005 79 336 0.0 0.0 0.00 0.00 0.00 90 1017.4
20260902121505 78 336 0.0 0.0 0.00 0.00 0.00 92 1017.4
20260902121005 78 336 0.0 0.0 0.00 0.00 0.00 92 1017.4
20260902120505 78 336 0.0 0.0 0.00 0.00 0.00 93 1017.3
20260902120006 77 336 0.0 0.0 0.00 0.00 0.00 93 1017.3
20260902115505 77 336 0.0 0.0 0.00 0.00 0.00 93 1017.3
20260902115005 77 336 0.0 0.0 0.00 0.00 0.00 93 1017.2
20260902114505 77 336 0.0 0.0 0.00 0.00 0.00 93 1017.2
20260902114005 77 336 0.0 0.0 0.00 0.00 0.00 93 1017.3
20260902113504 77 336 0.0 0.0 0.00 0.00 0.00 93 1017.2
20260902113006 76 336 0.0 0.0 0.00 0.00 0.00 93 1017.3
20260902112506 76 336 0.0 0.0 0.00 0.00 0.00 93 1017.3
20260902112005 76 336 0.0 0.0 0.00 0.00 0.00 92 1017.3
20260902111505 76 336 0.0 0.0 0.00 0.00 0.00 92 1017.3
20260902111005 76 336 0.0 0.0 0.00 0.00 0.00 92 1017.3
20260902110505 77 336 0.0 0.0 0.00 0.00 0.00 92 1017.3
20260902110007 77 336 0.0 0.0 0.00 0.00 0.00 92 1017.3
20260902105505 77 336 0.0 0.0 0.00 0.00 0.00 92 1017.2
20260902105005 77 336 0.0 0.0 0.00 0.00 0.00 92 1017.2
20260902104505 77 336 0.0 0.0 0.00 0.00 0.00 92 1017.1
20260902104005 77 336 0.0 0.0 0.00 0.00 0.00 92 1017.0
20260902103505 77 336 0.0 0.0 0.00 0.00 0.00 92 1017.0
20260902103005 77 336 0.0 0.0 0.00 0.00 0.00 92 1017.0
20260902102505 77 336 0.0 0.0 0.00 0.00 0.00 92 1017.0
20260902102006 77 336 0.0 0.0 0.00 0.00 0.00 92 1017.0
20260902101506 77 336 0.0 0.0 0.00 0.00 0.00 92 1017.0
20260902101007 77 336 0.0 0.0 0.00 0.00 0.00 92 1016.9
20260902100505 77 336 0.0 0.0 0.00 0.00 0.00 92 1016.8
20260902100005 77 336 0.0 0.0 0.00 0.00 0.00 92 1016.8
20260902095505 77 336 0.0 0.0 0.00 0.00 0.00 92 1016.7
20260902095005 77 336 0.0 0.0 0.00 0.00 0.00 92 1016.6
20260902094505 77 336 0.0 0.0 0.00 0.00 0.00 92 1016.7
20260902094004 77 336 0.0 0.0 0.00 0.00 0.00 92 1016.7
20260902093505 76 336 0.0 0.0 0.00 0.00 0.00 92 1016.7
20260902093005 76 336 0.0 0.0 0.00 0.00 0.00 92 1016.6
20260902092504 76 336 0.0 0.0 0.00 0.00 0.00 93 1016.6
20260902092005 76 336 0.0 1.0 0.00 0.00 0.00 93 1016.6
20260902091505 76 336 0.0 1.0 0.00 0.00 0.00 93 1016.6
20260902091005 76 229 0.0 1.0 0.00 0.00 0.00 93 1016.6
20260902090505 76 223 0.0 0.0 0.00 0.00 0.00 93 1016.5
20260902090005 76 223 0.0 0.0 0.00 0.00 0.00 93 1016.5
20260902085505 76 223 0.0 0.0 0.00 0.00 0.00 93 1016.5
20260902085005 76 223 0.0 0.0 0.00 0.00 0.00 93 1016.6
20260902084506 76 223 0.0 0.0 0.00 0.00 0.00 93 1016.6
20260902084005 76 223 0.0 0.0 0.00 0.00 0.00 93 1016.6
20260902083505 76 223 0.0 0.0 0.00 0.00 0.00 93 1016.5
20260902083005 76 223 0.0 0.0 0.00 0.00 0.00 92 1016.4
20260902082504 76 223 0.0 0.0 0.00 0.00 0.00 92 1016.4
20260902082005 76 223 0.0 0.0 0.00 0.00 0.00 92 1016.4
20260902081505 76 223 0.0 0.0 0.00 0.00 0.00 92 1016.3
20260902081005 76 223 0.0 0.0 0.00 0.00 0.00 92 1016.3
20260902080504 77 223 0.0 0.0 0.00 0.00 0.00 92 1016.3
20260902080005 77 223 0.0 0.0 0.00 0.00 0.00 92 1016.3
20260902075505 77 223 0.0 0.0 0.00 0.00 0.00 92 1016.3
20260902075005 77 223 0.0 0.0 0.00 0.00 0.00 92 1016.3
20260902074504 77 223 0.0 0.0 0.00 0.00 0.00 92 1016.2
20260902074005 77 223 0.0 0.0 0.00 0.00 0.00 92 1016.3
20260902073505 77 223 0.0 0.0 0.00 0.00 0.00 92 1016.3
20260902073005 77 223 0.0 0.0 0.00 0.00 0.00 92 1016.3
20260902072505 77 223 0.0 0.0 0.00 0.00 0.00 91 1016.3
20260902072004 77 223 0.0 0.0 0.00 0.00 0.00 91 1016.3
20260902071505 77 223 0.0 0.0 0.00 0.00 0.00 91 1016.3
20260902071004 77 223 0.0 0.0 0.00 0.00 0.00 91 1016.4
20260902070504 77 223 0.0 0.0 0.00 0.00 0.00 91 1016.4
20260902070007 77 223 0.0 0.0 0.00 0.00 0.00 91 1016.4
20260902065504 77 223 0.0 0.0 0.00 0.00 0.00 91 1016.4
20260902065005 77 223 0.0 0.0 0.00 0.00 0.00 91 1016.4
20260902064504 77 223 0.0 0.0 0.00 0.00 0.00 90 1016.3
20260902064005 77 223 0.0 0.0 0.00 0.00 0.00 90 1016.2
20260902063505 77 223 0.0 0.0 0.00 0.00 0.00 90 1016.2
20260902063005 77 223 0.0 0.0 0.00 0.00 0.00 89 1016.2
20260902062505 78 223 0.0 0.0 0.00 0.00 0.00 89 1016.2
20260902062005 78 223 0.0 0.0 0.00 0.00 0.00 89 1016.2
20260902061505 78 223 0.0 0.0 0.00 0.00 0.00 89 1016.2
20260902061004 78 223 0.0 0.0 0.00 0.00 0.00 89 1016.3
20260902060505 78 223 0.0 0.0 0.00 0.00 0.00 88 1016.1
20260902060005 78 223 0.0 0.0 0.00 0.00 0.00 88 1016.1
20260902055506 78 223 0.0 0.0 0.00 0.00 0.00 88 1016.0
20260902055005 78 223 0.0 0.0 0.00 0.00 0.00 87 1016.1
20260902054505 78 223 0.0 0.0 0.00 0.00 0.00 87 1016.1
20260902054004 78 223 0.0 0.0 0.00 0.00 0.00 87 1016.1
20260902053504 78 223 0.0 0.0 0.00 0.00 0.00 87 1016.1
20260902053004 78 223 0.0 0.0 0.00 0.00 0.00 86 1016.1
20260902052505 79 223 0.0 0.0 0.00 0.00 0.00 86 1016.1
20260902052004 79 223 0.0 0.0 0.00 0.00 0.00 86 1016.2
20260902051504 79 223 0.0 0.0 0.00 0.00 0.00 86 1016.3
20260902051004 79 223 0.0 0.0 0.00 0.00 0.00 86 1016.3
20260902050504 79 223 0.0 0.0 0.00 0.00 0.00 86 1016.3
20260902050007 79 223 0.0 0.0 0.00 0.00 0.00 86 1016.2
20260902045505 79 223 0.0 0.0 0.00 0.00 0.00 86 1016.2
20260902045005 79 223 0.0 0.0 0.00 0.00 0.00 85 1016.1
20260902044504 79 223 0.0 0.0 0.00 0.00 0.00 85 1016.1
20260902044005 79 223 0.0 0.0 0.00 0.00 0.00 85 1016.0
20260902043505 80 223 0.0 0.0 0.00 0.00 0.00 85 1016.0
20260902043004 80 223 0.0 0.0 0.00 0.00 0.00 85 1016.0
20260902042505 80 223 0.0 0.0 0.00 0.00 0.00 85 1016.0
20260902042005 80 223 0.0 0.0 0.00 0.00 0.00 85 1015.9
20260902041505 80 223 0.0 0.0 0.00 0.00 0.00 84 1015.9
20260902041005 80 223 0.0 0.0 0.00 0.00 0.00 84 1015.9
20260902040504 80 223 0.0 0.0 0.00 0.00 0.00 84 1015.9
20260902040005 80 223 0.0 0.0 0.00 0.00 0.00 84 1015.8
20260902035505 80 223 0.0 0.0 0.00 0.00 0.00 84 1015.7
20260902035004 80 223 0.0 0.0 0.00 0.00 0.00 84 1015.6
20260902034504 80 223 0.0 0.0 0.00 0.00 0.00 84 1015.6
20260902034005 80 223 0.0 0.0 0.00 0.00 0.00 83 1015.5
20260902033505 80 223 0.0 0.0 0.00 0.00 0.00 83 1015.5
20260902033004 80 223 0.0 0.0 0.00 0.00 0.00 83 1015.5
20260902032504 80 223 0.0 0.0 0.00 0.00 0.00 83 1015.4
20260902032004 80 223 0.0 0.0 0.00 0.00 0.00 83 1015.5
20260902031504 81 223 0.0 0.0 0.00 0.00 0.00 83 1015.5
20260902031005 81 223 0.0 0.0 0.00 0.00 0.00 83 1015.5
20260902030505 81 223 0.0 0.0 0.00 0.00 0.00 83 1015.5
20260902030004 81 223 0.0 0.0 0.00 0.00 0.00 82 1015.5
20260902025505 81 223 0.0 0.0 0.00 0.00 0.00 83 1015.5
20260902025005 81 223 0.0 0.0 0.00 0.00 0.00 82 1015.4
20260902024504 81 223 0.0 0.0 0.00 0.00 0.00 82 1015.5
20260902024004 81 223 0.0 0.0 0.00 0.00 0.00 81 1015.5
20260902023504 81 223 0.0 0.0 0.00 0.00 0.00 81 1015.5
20260902023004 81 223 0.0 0.0 0.00 0.00 0.00 81 1015.5
20260902022505 82 223 0.0 0.0 0.00 0.00 0.00 81 1015.5
20260902022006 82 223 0.0 0.0 0.00 0.00 0.00 81 1015.6
20260902021505 82 223 0.0 0.0 0.00 0.00 0.00 81 1015.5
20260902021004 82 223 0.0 0.0 0.00 0.00 0.00 80 1015.5
20260902020504 82 223 0.0 0.0 0.00 0.00 0.00 80 1015.6
20260902020004 82 223 0.0 0.0 0.00 0.00 0.00 80 1015.4
20260902015504 82 223 0.0 0.0 0.00 0.00 0.00 79 1015.3
20260902015005 82 223 0.0 0.0 0.00 0.00 0.00 79 1015.2
20260902014505 83 223 0.0 0.0 0.00 0.00 0.00 79 1015.1
20260902014005 83 223 0.0 0.0 0.00 0.00 0.00 79 1015.1
20260902013505 83 223 0.0 0.0 0.00 0.00 0.00 78 1015.0
20260902013004 83 223 0.0 0.0 0.00 0.00 0.00 78 1014.9
20260902012504 83 223 0.0 0.0 0.00 0.00 0.00 78 1014.8
20260902012004 83 223 0.0 0.0 0.00 0.00 0.00 78 1014.8
20260902011504 83 223 0.0 0.0 0.00 0.00 0.00 77 1014.7
20260902011004 84 223 0.0 0.0 0.00 0.00 0.00 77 1014.7
20260902010504 84 223 0.0 0.0 0.00 0.00 0.00 77 1014.7
20260902010005 84 223 0.0 0.0 0.00 0.00 0.00 76 1014.6
20260902005504 84 223 0.0 0.0 0.00 0.00 0.00 76 1014.6
20260902005005 84 223 0.0 0.0 0.00 0.00 0.00 75 1014.6
20260902004505 85 223 0.0 0.0 0.00 0.00 0.00 75 1014.6
20260902004004 85 223 0.0 0.0 0.00 0.00 0.00 74 1014.6
20260902003504 85 223 0.0 0.0 0.00 0.00 0.00 74 1014.4
20260902003005 86 223 0.0 0.0 0.00 0.00 0.00 74 1014.3
20260902002505 86 223 0.0 0.0 0.00 0.00 0.00 73 1014.3
20260902002004 86 223 0.0 0.0 0.00 0.00 0.00 73 1014.4
20260902001504 86 223 0.0 0.0 0.00 0.00 0.00 72 1014.3
20260902001004 87 223 0.0 0.0 0.00 0.00 0.00 72 1014.4
20260902000503 87 223 0.0 0.0 0.00 0.00 0.00 71 1014.3
20260902000004 87 223 0.0 0.0 0.00 0.00 0.00 71 1014.3
20260901235504 87 223 0.0 0.0 0.00 0.00 0.00 70 1014.2
20260901235004 88 223 0.0 0.0 0.00 0.00 0.00 69 1014.3
20260901234504 88 223 0.0 0.0 0.00 0.00 0.00 69 1014.3
20260901234004 88 223 0.0 0.0 0.00 0.00 0.00 68 1014.3
20260901233505 89 223 0.0 0.0 0.00 0.00 0.00 67 1014.3
20260901233004 89 223 0.0 0.0 0.00 0.00 0.00 67 1014.3
20260901232504 89 223 0.0 0.0 0.00 0.00 0.00 66 1014.4
20260901232004 90 223 0.0 0.0 0.00 0.00 0.00 65 1014.4
20260901231504 91 223 0.0 0.0 0.00 0.00 0.00 64 1014.5
20260901231004 91 223 0.0 0.0 0.00 0.00 0.00 62 1014.5
20260901230503 92 223 0.0 0.0 0.00 0.00 0.00 61 1014.5
20260901230004 92 223 0.0 0.0 0.00 0.00 0.00 61 1014.5
20260901225504 93 223 0.0 2.0 0.00 0.00 0.00 60 1014.5
20260901225003 93 223 0.0 3.0 0.00 0.00 0.00 58 1014.6
20260901224504 93 223 2.0 3.0 0.00 0.00 0.00 57 1014.7
20260901224005 93 223 1.0 3.0 0.00 0.00 0.00 57 1014.7
20260901223503 94 223 2.0 3.0 0.00 0.00 0.00 56 1014.7
20260901223004 94 223 1.0 3.0 0.00 0.00 0.00 57 1014.8
20260901222504 94 223 1.0 3.0 0.00 0.00 0.00 56 1014.8
20260901222004 95 223 0.0 3.0 0.00 0.00 0.00 56 1014.8
20260901221505 95 223 2.0 3.0 0.00 0.00 0.00 54 1014.8
20260901221004 95 223 2.0 3.0 0.00 0.00 0.00 54 1014.9
20260901220504 96 223 1.0 3.0 0.00 0.00 0.00 54 1014.9
20260901220004 96 223 2.0 3.0 0.00 0.00 0.00 53 1014.9
20260901215504 96 223 0.0 2.0 0.00 0.00 0.00 53 1014.9
20260901215004 96 223 1.0 3.0 0.00 0.00 0.00 53 1014.9
20260901214504 96 223 0.0 5.0 0.00 0.00 0.00 54 1014.9
20260901214004 97 284 1.0 5.0 0.00 0.00 0.00 54 1014.9
20260901213504 97 225 2.0 3.0 0.00 0.00 0.00 53 1014.9
20260901213004 97 232 1.0 3.0 0.00 0.00 0.00 52 1014.9
20260901212503 96 232 1.0 3.0 0.00 0.00 0.00 52 1014.9
20260901212004 97 245 0.0 2.0 0.00 0.00 0.00 52 1014.9
20260901211503 97 209 0.0 3.0 0.00 0.00 0.00 52 1014.9
20260901211005 97 210 2.0 3.0 0.00 0.00 0.00 51 1015.0
20260901210503 97 216 1.0 6.0 0.00 0.00 0.00 53 1015.0
20260901210004 97 214 2.0 6.0 0.00 0.00 0.00 51 1015.0
20260901205504 97 230 2.0 3.0 0.00 0.00 0.00 51 1015.1
20260901205005 98 320 1.0 5.0 0.00 0.00 0.00 51 1015.1
20260901204506 97 223 3.0 5.0 0.00 0.00 0.00 51 1015.1
20260901204004 98 268 0.0 3.0 0.00 0.00 0.00 52 1015.1
20260901203504 97 48 0.0 2.0 0.00 0.00 0.00 52 1015.2
20260901203004 98 0 0.0 3.0 0.00 0.00 0.00 51 1015.2
20260901202504 98 0 1.0 7.0 0.00 0.00 0.00 51 1015.2
20260901202004 97 0 1.0 7.0 0.00 0.00 0.00 54 1015.3
20260901201503 97 4 3.0 6.0 0.00 0.00 0.00 53 1015.4
20260901201004 96 12 1.0 8.0 0.00 0.00 0.00 54 1015.5
20260901200505 97 1 4.0 8.0 0.00 0.00 0.00 52 1015.5
20260901200005 97 4 2.0 5.0 0.00 0.00 0.00 52 1015.5
20260901195504 97 16 2.0 5.0 0.00 0.00 0.00 52 1015.5
20260901195005 97 13 2.0 5.0 0.00 0.00 0.00 51 1015.5
20260901194504 97 5 1.0 5.0 0.00 0.00 0.00 52 1015.6
20260901194004 97 5 0.0 7.0 0.00 0.00 0.00 51 1015.6
20260901193505 97 6 2.0 7.0 0.00 0.00 0.00 50 1015.6
20260901193005 97 343 2.0 7.0 0.00 0.00 0.00 51 1015.6
20260901192504 96 15 2.0 6.0 0.00 0.00 0.00 54 1015.7
20260901192005 97 13 1.0 6.0 0.00 0.00 0.00 52 1015.8
20260901191504 98 350 2.0 6.0 0.00 0.00 0.00 49 1015.8
20260901191004 99 349 1.0 5.0 0.00 0.00 0.00 49 1015.8
20260901190504 98 9 1.0 7.0 0.00 0.00 0.00 50 1015.9
20260901190004 97 17 3.0 7.0 0.00 0.00 0.00 53 1016.0
20260901185504 97 11 2.0 5.0 0.00 0.00 0.00 50 1016.0
20260901185004 97 343 2.0 5.0 0.00 0.00 0.00 50 1016.1
20260901184503 97 225 2.0 5.0 0.00 0.00 0.00 52 1016.1
20260901184004 96 40 1.0 5.0 0.00 0.00 0.00 56 1016.1
20260901183504 96 62 2.0 3.0 0.00 0.00 0.00 53 1016.2
20260901183004 95 270 2.0 3.0 0.00 0.00 0.00 53 1016.3
20260901182503 97 332 1.0 3.0 0.00 0.00 0.00 51 1016.4
20260901182004 97 5 2.0 6.0 0.00 0.00 0.00 53 1016.3
20260901181505 96 307 3.0 6.0 0.00 0.00 0.00 53 1016.2
20260901181004 97 317 1.0 5.0 0.00 0.00 0.00 51 1016.1
20260901180504 96 5 3.0 5.0 0.00 0.00 0.00 55 1016.1
20260901180004 95 132 0.0 3.0 0.00 0.00 0.00 55 1016.1
20260901175503 95 132 2.0 3.0 0.00 0.00 0.00 56 1016.1
20260901175004 94 34 2.0 3.0 0.00 0.00 0.00 57 1016.1
20260901174504 95 18 1.0 6.0 0.00 0.00 0.00 58 1016.1
20260901174006 96 17 4.0 6.0 0.00 0.00 0.00 55 1016.1
20260901173504 96 5 2.0 5.0 0.00 0.00 0.00 57 1016.1
20260901173003 95 221 2.0 3.0 0.00 0.00 0.00 56 1016.1
20260901172504 95 221 1.0 3.0 0.00 0.00 0.00 57 1016.2
20260901172004 94 335 2.0 3.0 0.00 0.00 0.00 58 1016.2
20260901171503 94 24 2.0 3.0 0.00 0.00 0.00 56 1016.2
20260901171004 94 242 0.0 3.0 0.00 0.00 0.00 57 1016.3
20260901170503 94 321 0.0 3.0 0.00 0.00 0.00 60 1016.2
20260901170003 93 32 1.0 3.0 0.00 0.00 0.00 61 1016.3
20260901165503 92 304 1.0 5.0 0.00 0.00 0.00 64 1016.4
20260901165004 91 5 2.0 5.0 0.00 0.00 0.00 63 1016.5
20260901164503 91 265 1.0 3.0 0.00 0.00 0.00 64 1016.6
20260901164004 91 359 2.0 7.0 0.00 0.00 0.00 65 1016.6
20260901163503 90 13 3.0 7.0 0.00 0.00 0.00 64 1016.7
20260901163003 90 15 3.0 6.0 0.00 0.00 0.00 64 1016.8
20260901162503 91 13 3.0 7.0 0.00 0.00 0.00 66 1017.0
20260901162003 91 12 3.0 7.0 0.00 0.00 0.00 66 1017.0
20260901161504 90 0 3.0 6.0 0.00 0.00 0.00 65 1017.0